Погода в Красной Поляне

Россия / Краснодарский край     46°39′30″N   39°22′45″E
темп.,
°C
ветер,
м/с
пор.,
м/с
влажн.,
%
обл.,
%
осадки,
мм/ч
давл.,
гПа
погр.,
м
14 мая, пт
пт1400:00+15в411885 0.0 1012175
03:00+14в412885 0.0 1012215
06:00+15вюв614815 0.0 1011261
09:00+21юв696899 0.0 1011391
12:00+26вюв4558100 0.0 1011613
15:00+28юв34555 0.0 1011955
18:00+26юв236999 0.0 1010116
21:00+21з118739 0.0 101112
15 мая, сб
сб1500:00+17ссз337013 0.0 101140
03:00+16зсз46650 0.0 101295
06:00+16ссз35725 0.0 101387
09:00+21ссз44625 0.0 1014354
12:00+25сз32505 0.0 1014813
15:00+26сз22485 0.0 10141173
18:00+24ссз346520 0.0 1013145
21:00+19ссз33635 0.0 101323
16 мая, вс
вс1600:00+17с336696 0.0 101242
03:00+17ссв4573100 0.0 101179
06:00+17св3582100 0.0 1011108
09:00+22всв4670100 0.0 1010364
12:00+25всв455589 0.0 1009687
15:00+27в5657100 0.0 10081165
18:00+24в3670100 0.0 1007246
21:00+20всв3477100 0.0 100661
17 мая, пн
пн1700:00+18в514740 0.0 1006282
03:00+16в513645 0.0 1005248
06:00+14в410737 0.0 1006212
09:00+20вюв57615 0.0 1006453
12:00+24ююв34575 0.1 1007890
15:00+26зюз125776 0.1 1007956
18:00+24зюз5775100 0.0 1008451
21:00+18юз2392100 0.0 101058
18 мая, вт
вт1800:00+18з3780100 0.0 1010191
03:00+15ююз369457 0.0 1011159
06:00+15юз5996100 0.0 1012255
09:00+19зюз5682100 0.0 1013617
12:00+22зюз4463100 0.0 10141258
15:00+23з4559100 0.0 10131398
18:00+21з467271 0.0 1014651
21:00+16з22840 0.0 101527